Location: Asheville, NC
(35.6000°N, 82.5500°W)
Time: 00:05:32
(UTC-05:00)

CUBEBUG 2 - Pass Details

Date: 07 January 2018
Orbit: 587 x 699 km, 97.6° (Epoch: 19 January)

Event Time Altitude Azimuth Distance (km) Brightness Sun altitude
Rises 18:29:28 0° 146° (SSE) 2,805 ? -11.4°
Reaches altitude 10° 18:31:44 10° 137° (SE) 1,916 ? -11.8°
Maximum altitude 18:35:30 34° 72° (ENE) 987 ? -12.5°
Drops below altitude 10° 18:39:22 10° 7° (N) 1,969 ? -13.3°
Sets 18:41:43 0° 359° (N) 2,896 ? -13.7°
